Weather in Voznesenskoe

Ukraine / Cherkassi District     49°45′31″N   32°09′45″E
temp.,
°C
wind,
m/s
gust,
m/s
humid.,
%
clouds,
%
prec.,
mm/h
press.,
hPa
HPBL,
m
17 april, sat
sat1700:00+4se5796100 0.1 1014411
03:00+5e459298 0.1 1014375
06:00+5ese2394100 0.0 1016248
09:00+5wsw4591100 0.1 1017564
12:00+5wsw4392100 0.2 1019722
15:00+5wsw3593100 1.6 1019785
18:00+7w1384100 0.2 1019334
21:00+6wsw3589100 0.3 1019185
18 april, sun
sun1800:00+6wsw3688100 0.0 1019197
03:00+5wsw2487100 0.0 1019137
06:00+5ssw3787100 0.0 1018220
09:00+6sw488196 0.0 1017316
12:00+12sw685467 0.0 10161597
15:00+13wnw6753100 0.0 10161783
18:00+9nw2783100 0.0 1016350
21:00+7nnw369124 0.0 1017162
19 april, mon
mon1900:00+5nnw2393100 0.0 101855
03:00+5nne2296100 0.0 101728
06:00+4ne3497100 0.0 101883
09:00+8ne3479100 0.0 1018491
12:00+11ne3360100 0.0 10161137
15:00+13ne3350100 0.0 10161607
18:00+13ne4552100 0.0 10141371
21:00+8ne497799 0.0 1015296
20 april, tue
tue2000:00+7ne5118091 0.0 1012299
03:00+7ne51077100 0.0 1011294
06:00+7ne51080100 0.0 1008298
09:00+9ne61379100 0.1 1006600
12:00+10ne91483100 0.6 10031311
15:00+9nne91490100 5.5 10001263
18:00+7n91490100 6.1 9991154
21:00+7nnw81391100 9.6 10001225
21 april, wed
wed2100:00+6nw81490100 1.4 10021120
03:00+6wnw81384100 1.4 1004951
06:00+5wnw71184100 0.0 10071029
09:00+6w6978100 0.0 10111092
12:00+8w5868100 0.0 10121252
15:00+10wsw5760100 0.0 10141362
18:00+10wsw455858 0.0 10151104
21:00+8ssw3574100 0.0 1017123